Weather History for Monterey, CA

Change the Weather History Date:

Wednesday, September 7, 2011

  Actual Average Record
Temperature  
Mean Temperature 62 °F 62 °F  
Max Temperature 72 °F 70 °F 85 °F (2000)
Min Temperature 52 °F 54 °F 46 °F (2001)
Degree Days  
Heating Degree Days 3    
Month to date heating degree days 36  
Since 1 July heating degree days 334  
Cooling Degree Days 0    
Month to date cooling degree days 0  
Year to date cooling degree days 3  
Growing Degree Days 10 (Base 50)    
Moisture  
Dew Point 51 °F    
Average Humidity 77    
Maximum Humidity 100    
Minimum Humidity 53    
Precipitation  
Precipitation 0.00 in - 0.00 in (2014)
Month to date precipitation 0.00  
Year to date precipitation 12.90  
Since 1 July precipitation 0.11  
Sea Level Pressure  
Sea Level Pressure 30.01 in    
Wind  
Wind Speed 2 mph (North)    
Max Wind Speed 8 mph    
Max Gust Speed 9 mph    
Visibility 5 miles    
Events Fog    
T = Trace of Precipitation, MM = Missing Value Source: NWS Daily Summary

Daily Weather History Graph

Daily Weather History Graph

Search for Another Location

Airport:

Trip Planner

Search our weather history database for the weather conditions in past years. The results will help you decide how hot, cold, wet, or windy it might be!

Date:

Astronomy

Sep. 07, 2011 Rise Set
Actual Time 6:43 AM PDT 7:26 PM PDT
Civil Twilight 6:17 AM PDT 7:53 PM PDT
Nautical Twilight 5:46 AM PDT 8:23 PM PDT
Astronomical Twilight 5:14 AM PDT 8:55 PM PDT
Moon 4:42 PM PDT (9/7) 2:11 AM PDT (9/7)
Length of Visible Light 13h 36m
Length of Day
12h 43m
Waxing Gibbous, 80% of the Moon is Illuminated
Sep 7
Waxing Gibbous
Sep 12
Full
Sep 20
Last Quarter
Sep 27
New
Oct 3
First Quarter

Hourly Weather History & Observations

Time (PDT) Temp. Dew Point Humidity Pressure Visibility Wind Dir Wind Speed Gust Speed Precip Events Conditions
12:11 AM 53.6 °F 51.8 °F 94% 29.97 in 0.2 mi Calm Calm - N/A Fog Fog
12:17 AM 53.6 °F 51.8 °F 94% 29.97 in 1.0 mi Calm Calm - N/A   Mist
12:21 AM 53.6 °F 51.8 °F 94% 29.97 in 3.0 mi Calm Calm - N/A   Overcast
12:35 AM 53.6 °F 51.8 °F 94% 29.97 in 1.8 mi ENE 3.5 mph - N/A   Overcast
12:54 AM 53.1 °F 51.1 °F 93% 30.01 in 0.5 mi East 3.5 mph - N/A Fog Fog
1:04 AM 53.6 °F 51.8 °F 94% 29.97 in 0.2 mi East 3.5 mph - N/A Fog Fog
1:16 AM 53.6 °F 50.0 °F 88% 29.97 in 0.2 mi East 5.8 mph - N/A Fog Fog
1:37 AM 51.8 °F 50.0 °F 94% 29.97 in 1.2 mi Calm Calm - N/A   Mostly Cloudy
1:39 AM 51.8 °F 50.0 °F 94% 29.97 in 4.0 mi Calm Calm - N/A   Mostly Cloudy
1:50 AM 51.8 °F 51.8 °F 100% 29.96 in 10.0 mi Calm Calm - N/A   Scattered Clouds
1:54 AM 52.0 °F 51.1 °F 97% 30.00 in 10.0 mi Calm Calm - N/A   Partly Cloudy
2:54 AM 54.0 °F 48.0 °F 80% 29.99 in 10.0 mi Calm Calm - N/A   Clear
3:54 AM 54.0 °F 48.0 °F 80% 30.00 in 10.0 mi WSW 3.5 mph - N/A   Clear
4:04 AM 53.6 °F 48.2 °F 82% 29.96 in 9.0 mi WSW 3.5 mph - N/A   Scattered Clouds
4:08 AM 53.6 °F 50.0 °F 88% 29.96 in 2.5 mi Calm Calm - N/A   Mostly Cloudy
4:17 AM 53.6 °F 50.0 °F 88% 29.96 in 1.8 mi Calm Calm - N/A   Mostly Cloudy
4:27 AM 53.6 °F 50.0 °F 88% 29.96 in 0.5 mi Calm Calm - N/A Fog Fog
4:33 AM 53.6 °F 50.0 °F 88% 29.96 in 0.2 mi Calm Calm - N/A Fog Fog
4:47 AM 53.6 °F 50.0 °F 88% 29.96 in 0.2 mi Calm Calm - N/A Fog Fog
4:54 AM 53.1 °F 50.0 °F 89% 30.00 in 0.2 mi Calm Calm - N/A Fog Fog
5:54 AM 53.1 °F 51.1 °F 93% 30.01 in 0.2 mi Calm Calm - N/A Fog Fog
6:46 AM 51.8 °F 50.0 °F 94% 29.99 in 0.5 mi Calm Calm - N/A Fog Fog
6:54 AM 52.0 °F 50.0 °F 93% 30.03 in 0.5 mi Calm Calm - N/A Fog Fog
7:03 AM 53.6 °F 50.0 °F 88% 29.99 in 0.2 mi Calm Calm - N/A Fog Fog
8:24 AM 53.6 °F 53.6 °F 100% 30.02 in 0.5 mi Calm Calm - N/A Fog Fog
8:30 AM 53.6 °F 51.8 °F 94% 30.02 in 1.0 mi Calm Calm - N/A   Overcast
8:45 AM 53.6 °F 51.8 °F 94% 30.02 in 0.2 mi Calm Calm - N/A Fog Fog
8:54 AM 54.0 °F 53.1 °F 97% 30.05 in 0.5 mi Calm Calm - N/A Fog Fog
9:06 AM 55.4 °F 51.8 °F 88% 30.01 in 0.5 mi Calm Calm - N/A Fog Fog
9:17 AM 57.2 °F 51.8 °F 82% 30.02 in 0.5 mi Calm Calm - N/A   Haze
9:19 AM 57.2 °F 51.8 °F 82% 30.02 in 10.0 mi Calm Calm - N/A   Scattered Clouds
9:54 AM 60.1 °F 52.0 °F 75% 30.06 in 10.0 mi NW 4.6 mph - N/A   Clear
10:04 AM 60.8 °F 51.8 °F 72% 30.03 in 10.0 mi WNW 4.6 mph - N/A   Scattered Clouds
10:54 AM 64.9 °F 53.1 °F 65% 30.06 in 10.0 mi Calm Calm - N/A   Scattered Clouds
11:54 AM 62.1 °F 52.0 °F 70% 30.06 in 10.0 mi NW 5.8 mph - N/A   Clear
12:54 PM 69.1 °F 53.1 °F 57% 30.05 in 10.0 mi Calm Calm - N/A   Clear
1:54 PM 66.9 °F 52.0 °F 59% 30.05 in 10.0 mi NW 4.6 mph - N/A   Clear
2:54 PM 69.8 °F 53.6 °F 56% 30.00 in 10.0 mi Variable 4.6 mph - N/A   Clear
3:54 PM 70.0 °F 52.0 °F 53% 30.02 in 10.0 mi NW 4.6 mph - N/A   Clear
4:54 PM 70.0 °F 53.1 °F 55% 30.01 in 10.0 mi NW 3.5 mph - N/A   Clear
5:54 PM 69.1 °F 53.1 °F 57% 30.02 in 10.0 mi NW 3.5 mph - N/A   Clear
6:54 PM 64.0 °F 52.0 °F 65% 30.02 in 10.0 mi Calm Calm - N/A   Clear
7:54 PM 62.1 °F 52.0 °F 70% 30.03 in 10.0 mi NW 4.6 mph - N/A   Clear
8:54 PM 60.1 °F 52.0 °F 75% 30.06 in 10.0 mi Calm Calm - N/A   Clear
9:54 PM 55.9 °F 52.0 °F 87% 30.08 in 10.0 mi North 3.5 mph - N/A   Partly Cloudy
10:09 PM 55.4 °F 51.8 °F 88% 30.04 in 8.0 mi Calm Calm - N/A   Mostly Cloudy
10:54 PM 54.0 °F 51.1 °F 90% 30.08 in 4.0 mi ENE 3.5 mph - N/A   Overcast
11:31 PM 53.6 °F 51.8 °F 94% 30.05 in 1.8 mi East 4.6 mph - N/A   Overcast
11:45 PM 53.6 °F 51.8 °F 94% 30.04 in 2.5 mi East 5.8 mph - N/A   Overcast
11:54 PM 54.0 °F 51.1 °F 90% 30.08 in 8.0 mi East 4.6 mph - N/A   Mostly Cloudy